IT9NKT-WX Weather Reports


Display with metric or nautical units.
time (UTC)temp
F
wind
direction
speed
MPH
gust
MPH
rain 1hr
in
rain 24hr
in
rain mn
in
humidity
%
barometer
mb
20260904122503 88 98 3.0 8.0 0.00 0.00 0.00 60 1017.4
20260904122215 89 95 3.0 8.0 0.00 0.00 0.00 58 1017.5
20260904121503 88 102 2.0 8.0 0.00 0.00 0.00 58 1017.6
20260904121004 89 165 3.0 6.0 0.00 0.00 0.00 57 1017.3
20260904120714 89 143 3.0 9.0 0.00 0.00 0.00 57 1017.5
20260904120004 90 91 3.0 9.0 0.00 0.00 0.00 58 1017.6
20260904115504 91 118 3.0 8.0 0.00 0.00 0.00 55 1017.5
20260904115004 90 136 3.0 8.0 0.00 0.00 0.00 55 1017.9
20260904114503 90 116 3.0 10.0 0.00 0.00 0.00 57 1017.8
20260904114003 89 122 3.0 10.0 0.00 0.00 0.00 55 1017.7
20260904113717 89 113 3.0 7.0 0.00 0.00 0.00 56 1017.6
20260904113003 88 99 4.0 13.0 0.00 0.00 0.00 57 1017.6
20260904112503 90 95 3.0 13.0 0.00 0.00 0.00 54 1017.7
20260904112004 90 95 2.0 8.0 0.00 0.00 0.00 52 1017.4
20260904111504 91 144 2.0 8.0 0.00 0.00 0.00 53 1017.4
20260904111004 90 139 3.0 9.0 0.00 0.00 0.00 52 1017.6
20260904110504 90 119 3.0 9.0 0.00 0.00 0.00 55 1017.6
20260904110004 89 128 3.0 11.0 0.00 0.00 0.00 54 1017.4
20260904105716 90 132 3.0 11.0 0.00 0.00 0.00 53 1017.6
20260904105003 89 101 2.0 6.0 0.00 0.00 0.00 53 1017.4
20260904104503 90 103 2.0 8.0 0.00 0.00 0.00 54 1017.5
20260904104003 92 103 2.0 8.0 0.00 0.00 0.00 51 1017.6
20260904103503 90 131 3.0 8.0 0.00 0.00 0.00 52 1017.6
20260904103003 90 126 3.0 8.0 0.00 0.00 0.00 53 1017.7
20260904102504 89 116 3.0 7.0 0.00 0.00 0.00 54 1017.7
20260904102004 90 123 2.0 7.0 0.00 0.00 0.00 51 1017.6
20260904101504 91 101 2.0 6.0 0.00 0.00 0.00 49 1017.5
20260904101218 91 89 2.0 6.0 0.00 0.00 0.00 49 1017.6
20260904100504 89 100 2.0 6.0 0.00 0.00 0.00 51 1017.4
20260904100004 90 92 2.0 8.0 0.00 0.00 0.00 49 1017.4
20260904095503 89 73 2.0 8.0 0.00 0.00 0.00 52 1017.7
20260904095003 90 93 2.0 6.0 0.00 0.00 0.00 51 1017.7
20260904094503 89 109 3.0 8.0 0.00 0.00 0.00 51 1017.8
20260904094003 90 95 2.0 8.0 0.00 0.00 0.00 50 1017.9
20260904093504 89 81 3.0 9.0 0.00 0.00 0.00 50 1017.6
20260904093004 89 94 3.0 9.0 0.00 0.00 0.00 50 1017.8
20260904092503 90 102 2.0 8.0 0.00 0.00 0.00 50 1017.9
20260904092004 90 106 2.0 7.0 0.00 0.00 0.00 49 1017.8
20260904091504 91 89 2.0 6.0 0.00 0.00 0.00 47 1017.8
20260904091003 89 87 2.0 7.0 0.00 0.00 0.00 49 1017.6
20260904090504 90 98 1.0 7.0 0.00 0.00 0.00 48 1018.0
20260904090004 90 154 1.0 6.0 0.00 0.00 0.00 49 1017.9
20260904085504 91 192 2.0 6.0 0.00 0.00 0.00 46 1017.7
20260904085003 91 190 2.0 6.0 0.00 0.00 0.00 46 1017.9
20260904084504 91 168 2.0 4.0 0.00 0.00 0.00 47 1017.8
20260904084003 90 175 2.0 6.0 0.00 0.00 0.00 48 1017.6
20260904083503 90 184 2.0 6.0 0.00 0.00 0.00 48 1017.7
20260904083004 91 183 1.0 6.0 0.00 0.00 0.00 47 1017.5
20260904082715 91 182 1.0 3.0 0.00 0.00 0.00 47 1017.7
20260904082004 90 186 2.0 4.0 0.00 0.00 0.00 48 1017.7
20260904081503 89 187 2.0 4.0 0.00 0.00 0.00 49 1017.7
20260904081003 90 182 2.0 4.0 0.00 0.00 0.00 48 1017.4
20260904080504 91 184 1.0 4.0 0.00 0.00 0.00 48 1017.3
20260904080003 90 187 1.0 4.0 0.00 0.00 0.00 49 1017.4
20260904075504 90 194 2.0 4.0 0.00 0.00 0.00 49 1017.5
20260904075004 89 191 2.0 4.0 0.00 0.00 0.00 51 1017.5
20260904074503 89 179 2.0 4.0 0.00 0.00 0.00 50 1017.6
20260904074003 89 181 2.0 4.0 0.00 0.00 0.00 50 1017.6
20260904073503 89 189 1.0 3.0 0.00 0.00 0.00 49 1017.7
20260904073212 90 192 1.0 3.0 0.00 0.00 0.00 49 1017.5
20260904072503 89 171 1.0 2.0 0.00 0.00 0.00 50 1017.6
20260904072003 89 128 1.0 3.0 0.00 0.00 0.00 50 1017.5
20260904071504 88 123 1.0 3.0 0.00 0.00 0.00 50 1017.4
20260904071003 88 151 1.0 3.0 0.00 0.00 0.00 50 1017.6
20260904070504 87 261 1.0 3.0 0.00 0.00 0.00 50 1017.4
20260904070004 89 29 0.0 2.0 0.00 0.00 0.00 49 1017.5
20260904065504 87 326 1.0 2.0 0.00 0.00 0.00 50 1017.3
20260904065004 87 314 0.0 2.0 0.00 0.00 0.00 50 1017.6
20260904064504 89 174 0.0 1.0 0.00 0.00 0.00 49 1017.5
20260904064217 88 189 1.0 2.0 0.00 0.00 0.00 49 1017.4
20260904063715 87 187 1.0 2.0 0.00 0.00 0.00 51 1017.5
20260904063003 86 181 1.0 3.0 0.00 0.00 0.00 55 1017.5
20260904062716 86 187 1.0 3.0 0.00 0.00 0.00 55 1017.6
20260904062004 87 193 1.0 2.0 0.00 0.00 0.00 52 1017.3
20260904061717 87 186 0.0 2.0 0.00 0.00 0.00 52 1017.3
20260904061005 86 185 0.0 2.0 0.00 0.00 0.00 53 1017.7
20260904060718 86 184 0.0 2.0 0.00 0.00 0.00 54 1017.6
20260904060004 85 201 1.0 3.0 0.00 0.00 0.00 54 1017.3
20260904055714 84 202 1.0 3.0 0.00 0.00 0.00 55 1017.3
20260904055217 84 201 1.0 3.0 0.00 0.00 0.00 54 1017.3
20260904054503 85 185 0.0 1.0 0.00 0.00 0.00 51 1017.3
20260904054213 84 190 0.0 1.0 0.00 0.00 0.00 52 1017.2
20260904053716 83 174 0.0 1.0 0.00 0.00 0.00 53 1017.3
20260904053003 82 150 0.0 1.0 0.00 0.00 0.00 52 1017.2
20260904052504 82 150 0.0 2.0 0.00 0.00 0.00 51 1017.4
20260904052003 80 154 0.0 2.0 0.00 0.00 0.00 52 1017.5
20260904051504 80 167 0.0 1.0 0.00 0.00 0.00 52 1017.4
20260904051004 79 169 0.0 1.0 0.00 0.00 0.00 53 1017.4
20260904050504 79 200 0.0 2.0 0.00 0.00 0.00 55 1017.2
20260904050217 79 202 0.0 2.0 0.00 0.00 0.00 55 1017.3
20260904045504 78 201 0.0 1.0 0.00 0.00 0.00 57 1017.1
20260904045004 77 201 0.0 1.0 0.00 0.00 0.00 57 1017.2
20260904044503 77 202 0.0 1.0 0.00 0.00 0.00 58 1017.2
20260904044213 77 200 0.0 1.0 0.00 0.00 0.00 58 1017.2
20260904043504 77 196 0.0 1.0 0.00 0.00 0.00 59 1016.9
20260904043004 77 193 0.0 1.0 0.00 0.00 0.00 60 1017.0
20260904042504 77 198 0.0 1.0 0.00 0.00 0.00 60 1016.9
20260904042004 77 194 0.0 1.0 0.00 0.00 0.00 61 1017.0
20260904041503 77 207 0.0 1.0 0.00 0.00 0.00 62 1016.9
20260904041003 77 209 0.0 1.0 0.00 0.00 0.00 63 1016.8
20260904040714 77 217 0.0 1.0 0.00 0.00 0.00 63 1017.0
20260904040004 77 259 0.0 1.0 0.00 0.00 0.00 63 1016.9
20260904035503 77 200 0.0 1.0 0.00 0.00 0.00 64 1016.8
20260904035003 77 206 0.0 1.0 0.00 0.00 0.00 64 1016.8
20260904034503 78 213 0.0 1.0 0.00 0.00 0.00 66 1016.8
20260904034004 78 217 0.0 1.0 0.00 0.00 0.00 65 1016.7
20260904033504 78 229 0.0 1.0 0.00 0.00 0.00 64 1016.4
20260904033003 79 228 0.0 1.0 0.00 0.00 0.00 64 1016.6
20260904032503 79 253 0.0 1.0 0.00 0.00 0.00 64 1016.6
20260904032216 79 265 0.0 1.0 0.00 0.00 0.00 64 1016.6
20260904031714 79 268 0.0 2.0 0.00 0.00 0.00 63 1016.6
20260904031003 79 268 0.0 2.0 0.00 0.00 0.00 63 1016.6
20260904030504 79 252 0.0 1.0 0.00 0.00 0.00 62 1016.7
20260904030003 79 250 0.0 1.0 0.00 0.00 0.00 61 1016.6
20260904025504 78 244 0.0 1.0 0.00 0.00 0.00 60 1016.6
20260904025003 78 204 0.0 1.0 0.00 0.00 0.00 60 1016.6
20260904024504 78 199 0.0 1.0 0.00 0.00 0.00 60 1016.6
20260904024004 78 194 0.0 1.0 0.00 0.00 0.00 61 1016.6
20260904023504 78 202 0.0 1.0 0.00 0.00 0.00 60 1016.6
20260904023003 78 254 0.0 2.0 0.00 0.00 0.00 61 1016.6
20260904022504 78 259 1.0 3.0 0.00 0.00 0.00 64 1016.6
20260904022003 78 256 1.0 3.0 0.00 0.00 0.00 67 1016.4
20260904021503 78 255 1.0 3.0 0.00 0.00 0.00 67 1016.6
20260904021003 78 213 1.0 3.0 0.00 0.00 0.00 67 1016.5
20260904020715 78 199 1.0 2.0 0.00 0.00 0.00 66 1016.5
20260904020004 78 215 1.0 3.0 0.00 0.00 0.00 66 1016.5
20260904015716 79 191 1.0 3.0 0.00 0.00 0.00 66 1016.6
20260904015003 79 212 1.0 3.0 0.00 0.00 0.00 66 1016.6
20260904014503 79 218 1.0 3.0 0.00 0.00 0.00 65 1016.5
20260904014003 79 180 0.0 3.0 0.00 0.00 0.00 65 1016.5
20260904013503 79 179 1.0 3.0 0.00 0.00 0.00 65 1016.5
20260904013004 78 199 0.0 1.0 0.00 0.00 0.00 66 1016.4
20260904012503 78 207 1.0 3.0 0.00 0.00 0.00 68 1016.7
20260904012004 78 197 1.0 3.0 0.00 0.00 0.00 69 1016.6
20260904011504 78 198 1.0 2.0 0.00 0.00 0.00 70 1016.5
20260904011004 78 183 1.0 3.0 0.00 0.00 0.00 70 1016.6
20260904010503 78 166 1.0 3.0 0.00 0.00 0.00 72 1016.7
20260904010003 79 177 0.0 2.0 0.00 0.00 0.00 72 1016.6
20260904005504 78 193 0.0 1.0 0.00 0.00 0.00 73 1016.6
20260904005004 78 189 0.0 1.0 0.00 0.00 0.00 73 1016.7
20260904004504 79 189 0.0 1.0 0.00 0.00 0.00 73 1016.6
20260904004004 79 183 0.0 1.0 0.00 0.00 0.00 73 1016.6
20260904003503 79 176 1.0 2.0 0.00 0.00 0.00 73 1016.9
20260904003004 79 179 1.0 2.0 0.00 0.00 0.00 74 1016.7
20260904002503 79 193 0.0 1.0 0.00 0.00 0.00 74 1016.7
20260904002004 79 193 0.0 2.0 0.00 0.00 0.00 74 1016.8
20260904001504 79 194 0.0 2.0 0.00 0.00 0.00 73 1016.7
20260904001214 79 200 0.0 1.0 0.00 0.00 0.00 73 1016.8
20260904000503 79 242 0.0 2.0 0.00 0.00 0.00 73 1017.0
20260904000003 79 213 0.0 1.0 0.00 0.00 0.00 73 1017.2
20260903235504 79 193 0.0 1.0 0.00 0.00 0.00 73 1017.1
20260903235216 79 203 0.0 1.0 0.00 0.00 0.00 72 1016.9
20260903234503 79 227 0.0 1.0 0.00 0.00 0.00 72 1017.0
20260903234216 79 230 0.0 1.0 0.00 0.00 0.00 72 1017.2
20260903233503 80 192 0.0 1.0 0.00 0.00 0.00 70 1017.1
20260903233003 80 242 0.0 1.0 0.00 0.00 0.00 70 1017.1
20260903232503 80 272 0.0 1.0 0.00 0.00 0.00 69 1017.1
20260903232003 80 256 0.0 2.0 0.00 0.00 0.00 69 1017.0
20260903231504 80 258 0.0 2.0 0.00 0.00 0.00 69 1017.0
20260903230503 80 0 0.0 0.0 0.00 0.00 0.00 72 1017.0
20260903230215 81 0 0.0 0.0 0.00 0.00 0.00 72 1017.0
20260903225503 81 0 0.0 0.0 0.00 0.00 0.00 72 1017.0
20260903225004 80 0 0.0 0.0 0.00 0.00 0.00 73 1017.1
20260903224503 81 0 0.0 0.0 0.00 0.00 0.00 74 1017.0
20260903224004 81 220 0.0 1.0 0.00 0.00 0.00 74 1017.1
20260903223503 81 220 0.0 1.0 0.00 0.00 0.00 74 1017.1
20260903223003 81 0 0.0 0.0 0.00 0.00 0.00 74 1017.0
20260903222716 81 225 0.0 0.0 0.00 0.00 0.00 74 1016.9
20260903222003 81 190 0.0 1.0 0.00 0.00 0.00 73 1017.0
20260903221504 82 182 0.0 1.0 0.00 0.00 0.00 73 1017.0
20260903221215 82 182 0.0 1.0 0.00 0.00 0.00 72 1016.8
20260903220503 81 189 0.0 1.0 0.00 0.00 0.00 72 1016.8
20260903220006 82 198 0.0 1.0 0.00 0.00 0.00 75 1016.6
20260903215504 82 0 0.0 0.0 0.00 0.00 0.00 75 1016.7
20260903215004 82 0 0.0 0.0 0.00 0.00 0.00 75 1016.8
20260903214504 82 226 0.0 1.0 0.00 0.00 0.00 75 1016.8
20260903214004 82 226 0.0 1.0 0.00 0.00 0.00 74 1016.8
20260903213503 82 192 0.0 1.0 0.00 0.00 0.00 74 1016.6
20260903213004 82 201 0.0 1.0 0.00 0.00 0.00 74 1016.7
20260903212504 82 202 0.0 1.0 0.00 0.00 0.00 74 1016.6
20260903212004 82 0 0.0 0.0 0.00 0.00 0.00 75 1016.6
20260903211713 82 0 0.0 0.0 0.00 0.00 0.00 75 1016.6
20260903211003 82 237 0.0 1.0 0.00 0.00 0.00 75 1016.6
20260903210713 82 247 0.0 1.0 0.00 0.00 0.00 75 1016.9
20260903210004 82 178 0.0 1.0 0.00 0.00 0.00 76 1016.8
20260903205503 82 147 0.0 1.0 0.00 0.00 0.00 76 1016.9
20260903205003 82 109 1.0 3.0 0.00 0.00 0.00 76 1016.8
20260903204504 82 97 1.0 3.0 0.00 0.00 0.00 76 1016.9
20260903204004 82 91 1.0 3.0 0.00 0.00 0.00 76 1017.0
20260903203504 82 92 1.0 3.0 0.00 0.00 0.00 76 1016.9
20260903203003 82 81 0.0 2.0 0.00 0.00 0.00 75 1016.9
20260903202717 82 88 0.0 2.0 0.00 0.00 0.00 75 1016.7
20260903202004 82 108 1.0 6.0 0.00 0.00 0.00 74 1016.9
20260903201503 82 94 2.0 7.0 0.00 0.00 0.00 74 1017.1
20260903201003 82 89 2.0 7.0 0.00 0.00 0.00 74 1016.8
20260903200714 82 88 2.0 7.0 0.00 0.00 0.00 74 1016.8
20260903200004 83 87 2.0 9.0 0.00 0.00 0.00 74 1017.0
20260903195504 82 78 2.0 9.0 0.00 0.00 0.00 74 1016.8
20260903195003 83 57 1.0 4.0 0.00 0.00 0.00 74 1016.9
20260903194504 82 56 2.0 6.0 0.00 0.00 0.00 74 1016.9
20260903194004 83 69 2.0 6.0 0.00 0.00 0.00 75 1016.8
20260903193504 83 69 3.0 11.0 0.00 0.00 0.00 75 1016.8
20260903193003 83 63 2.0 11.0 0.00 0.00 0.00 75 1016.8
20260903192504 83 68 2.0 7.0 0.00 0.00 0.00 75 1016.6
20260903192216 83 70 2.0 7.0 0.00 0.00 0.00 75 1016.8
20260903191503 83 69 2.0 7.0 0.00 0.00 0.00 75 1016.7
20260903191004 83 59 3.0 13.0 0.00 0.00 0.00 74 1016.5
20260903190504 83 44 3.0 13.0 0.00 0.00 0.00 73 1016.5
20260903190004 83 39 2.0 6.0 0.00 0.00 0.00 72 1016.5
20260903185503 83 72 2.0 7.0 0.00 0.00 0.00 72 1016.4
20260903185004 83 91 3.0 7.0 0.00 0.00 0.00 73 1016.3
20260903184504 83 86 3.0 11.0 0.00 0.00 0.00 74 1016.2
20260903184003 83 110 3.0 11.0 0.00 0.00 0.00 76 1016.2
20260903183504 83 108 3.0 13.0 0.00 0.00 0.00 75 1016.3
20260903183004 83 85 3.0 13.0 0.00 0.00 0.00 73 1016.0
20260903182504 83 107 3.0 11.0 0.00 0.00 0.00 71 1016.0
20260903182217 83 104 3.0 11.0 0.00 0.00 0.00 70 1015.9
20260903181504 83 80 3.0 7.0 0.00 0.00 0.00 67 1015.9
20260903181003 83 72 3.0 9.0 0.00 0.00 0.00 67 1015.8
20260903180503 83 78 3.0 9.0 0.00 0.00 0.00 66 1015.6
20260903180004 84 80 2.0 7.0 0.00 0.00 0.00 65 1015.7
20260903175504 84 87 2.0 6.0 0.00 0.00 0.00 63 1015.4
20260903175004 84 81 2.0 9.0 0.00 0.00 0.00 62 1015.4
20260903174717 84 78 2.0 9.0 0.00 0.00 0.00 62 1015.4
20260903174215 84 72 2.0 6.0 0.00 0.00 0.00 61 1015.3
20260903173504 84 70 2.0 8.0 0.00 0.00 0.00 60 1015.3
20260903173216 85 64 2.0 8.0 0.00 0.00 0.00 60 1015.2
20260903172503 85 59 2.0 5.0 0.00 0.00 0.00 56 1015.3
20260903172003 85 80 2.0 9.0 0.00 0.00 0.00 56 1015.2
20260903171504 85 101 2.0 9.0 0.00 0.00 0.00 56 1014.9
20260903171213 85 106 3.0 9.0 0.00 0.00 0.00 56 1015.1
20260903170504 85 85 3.0 7.0 0.00 0.00 0.00 58 1014.8
20260903170003 85 55 3.0 14.0 0.00 0.00 0.00 58 1014.9
20260903165504 85 52 3.0 14.0 0.00 0.00 0.00 58 1014.9
20260903165215 85 55 3.0 13.0 0.00 0.00 0.00 59 1015.0
20260903164713 85 62 3.0 10.0 0.00 0.00 0.00 60 1015.0
20260903164004 85 62 3.0 10.0 0.00 0.00 0.00 60 1014.9
20260903163503 86 71 3.0 9.0 0.00 0.00 0.00 59 1015.1
20260903163005 86 86 3.0 8.0 0.00 0.00 0.00 60 1015.2
20260903162504 86 65 2.0 7.0 0.00 0.00 0.00 62 1015.1
20260903162213 85 59 3.0 7.0 0.00 0.00 0.00 64 1015.1
20260903161503 85 45 4.0 17.0 0.00 0.00 0.00 65 1015.0
20260903161003 85 37 4.0 17.0 0.00 0.00 0.00 65 1015.2
20260903160503 85 41 4.0 14.0 0.00 0.00 0.00 65 1015.1
20260903160214 85 44 3.0 14.0 0.00 0.00 0.00 65 1015.2
20260903155503 86 50 4.0 8.0 0.00 0.00 0.00 64 1015.2
20260903155215 86 52 4.0 8.0 0.00 0.00 0.00 64 1015.2
20260903154713 86 70 4.0 14.0 0.00 0.00 0.00 63 1015.0
20260903154004 86 50 4.0 10.0 0.00 0.00 0.00 62 1014.9
20260903153504 86 49 4.0 8.0 0.00 0.00 0.00 62 1015.2
20260903153003 86 46 5.0 14.0 0.00 0.00 0.00 62 1015.0
20260903152504 86 52 5.0 14.0 0.00 0.00 0.00 64 1014.5
20260903152004 86 69 4.0 13.0 0.00 0.00 0.00 65 1015.0
20260903151503 86 64 5.0 18.0 0.00 0.00 0.00 65 1014.9
20260903151003 85 65 5.0 18.0 0.00 0.00 0.00 65 1015.0
20260903150503 87 59 4.0 14.0 0.00 0.00 0.00 65 1015.2
20260903150004 86 59 4.0 10.0 0.00 0.00 0.00 63 1014.9
20260903145503 87 77 4.0 10.0 0.00 0.00 0.00 57 1015.1
20260903145003 87 93 4.0 15.0 0.00 0.00 0.00 55 1015.2
20260903144503 87 101 4.0 15.0 0.00 0.00 0.00 54 1015.1
20260903144004 88 109 5.0 9.0 0.00 0.00 0.00 55 1015.2
20260903143503 89 95 4.0 17.0 0.00 0.00 0.00 52 1015.4
20260903143003 89 80 4.0 17.0 0.00 0.00 0.00 51 1015.2
20260903142504 89 84 4.0 13.0 0.00 0.00 0.00 51 1015.1
20260903142003 88 78 4.0 13.0 0.00 0.00 0.00 49 1015.2
20260903141717 89 77 5.0 17.0 0.00 0.00 0.00 51 1015.2
20260903141003 89 51 4.0 17.0 0.00 0.00 0.00 51 1014.9
20260903140503 90 34 4.0 15.0 0.00 0.00 0.00 51 1014.7
20260903140004 89 38 4.0 15.0 0.00 0.00 0.00 50 1014.8
20260903135714 89 48 4.0 15.0 0.00 0.00 0.00 50 1014.6
20260903135004 90 59 4.0 14.0 0.00 0.00 0.00 50 1014.7
20260903134503 90 55 4.0 7.0 0.00 0.00 0.00 50 1014.8
20260903134218 90 62 4.0 15.0 0.00 0.00 0.00 50 1014.5
20260903133504 90 69 5.0 15.0 0.00 0.00 0.00 50 1014.9
20260903133003 90 49 4.0 11.0 0.00 0.00 0.00 49 1014.5
20260903132717 91 41 4.0 9.0 0.00 0.00 0.00 50 1014.6
20260903132214 91 51 4.0 17.0 0.00 0.00 0.00 47 1014.6
20260903131504 91 58 4.0 13.0 0.00 0.00 0.00 49 1014.5
20260903131004 91 78 4.0 13.0 0.00 0.00 0.00 46 1014.7
20260903130504 91 90 4.0 11.0 0.00 0.00 0.00 49 1014.7
20260903130004 91 88 3.0 10.0 0.00 0.00 0.00 48 1014.8
20260903125504 90 90 4.0 13.0 0.00 0.00 0.00 51 1014.9
20260903125213 90 86 4.0 13.0 0.00 0.00 0.00 52 1014.7
20260903124504 90 70 3.0 8.0 0.00 0.00 0.00 52 1014.8
20260903124218 90 81 4.0 14.0 0.00 0.00 0.00 52 1014.8
20260903123504 91 82 3.0 14.0 0.00 0.00 0.00 50 1015.1
20260903123004 92 73 2.0 5.0 0.00 0.00 0.00 46 1015.0